[[{"header":{"parameterUnit":"m.s-1","parameterCategory":1,"la1":30.2991,"la2":30.254,"lo1":-89.0895,"lo2":-89.0444,"dy":0.0017,"dx":0.0017,"nx":28,"ny":28,"refTime":"2025-03-08T03:00:00:Z","depth":0,"parameterNumber":2,"parameterNumberName":"U-component_of_WINDS"},"data":[0,0,0,0,0,0,0,0,0,0,0,0,0,0,0,0,0,0,0,0,0,0,0,0,0,0,0,0,0,0,0,0,0,0,0,0,0,0,0,0,0,0,0,0,0,0,0,0,0,0,0,0,0,0,0,0,0,0,-5.0235,-5.0235,0,-5.021,-5.021,-5.0209,-5.0078,-5.0075,-5.0072,-5.0069,-5.0044,-5.0047,-5.0049,0,0,0,0,0,0,0,0,0,0,0,0,0,-5.0172,-5.0173,-5.0235,-5.0235,-5.0235,-5.021,-5.021,-5.0209,-5.0079,-5.0075,-5.0071,-5.0068,-5.0044,-5.0046,-5.0049,0,0,0,0,0,0,0,0,0,0,0,0,0,-5.0178,-5.0174,-5.0235,-5.0166,-5.016,-5.021,-5.021,-5.0209,-5.008,-5.0075,-5.007,-5.0066,-5.0043,-5.0046,-5.0049,-5.0164,0,0,-5.006,-5.0061,0,0,0,0,0,0,0,0,-5.0178,-5.0181,-5.0177,-5.0171,-5.0164,-5.0142,-5.0178,-5.0194,-5.0081,-5.011,-5.0069,-5.0064,-5.0081,-5.0081,-5.0086,-5.0163,-5.0162,-5.006,-5.0062,-5.0064,-5.0064,0,0,0,0,0,0,0,-5.0178,-5.0181,-5.0225,-5.0177,-5.0169,-5.0137,-5.0133,-5.0181,-5.0122,-5.0107,-5.0098,-5.0097,-5.0077,-5.0084,-5.0085,-5.0161,-5.006,-5.0063,-5.0065,-5.0066,-5.0332,-5.0337,0,0,0,0,0,0,-5.0187,-5.0182,-5.0226,-5.0224,-5.016,-5.0142,-5.0138,-5.0154,-5.0121,-5.0112,-5.0101,-5.0091,-5.008,-5.0081,-5.0084,-5.0216,-5.0064,-5.0067,-5.0069,-5.0327,-5.0333,-5.0339,0,0,0,0,0,0,-5.0186,-5.0192,-5.0227,-5.02,-5.0202,-5.0148,-5.0168,-5.0156,-5.0163,-5.0116,-5.0105,-5.0118,-5.0076,-5.0079,-5.0145,-5.0214,-5.0068,-5.0071,-5.0321,-5.0329,-5.0336,-5.0483,0,0,0,0,0,0,-5.0185,-5.0192,-5.0235,-5.0202,-5.0204,-5.0289,-5.0172,-5.0159,-5.0169,-5.0156,-5.013,-5.0121,-5.0073,-5.0141,-5.0149,-5.0216,-5.0074,-5.0315,-5.0325,-5.0334,-5.0472,-5.0495,-5.0514,0,0,0,0,0,-5.0183,-5.0277,-5.0238,-5.0244,-5.0256,-5.0293,-5.0294,-5.0237,-5.0175,-5.0218,-5.0188,-5.0122,-5.0205,-5.0149,-5.0156,-5.0226,-5.031,-5.0322,-5.0333,-5.0462,-5.049,-5.0514,0,0,0,0,0,0,-5.0319,-5.0271,-5.0227,-5.0314,-5.0309,-5.0271,-5.0323,-5.0268,-5.028,-5.0267,-5.0195,-5.019,-5.0268,-5.0253,-5.0191,-5.0336,-5.0247,-5.026,-5.0342,-5.0368,-5.0389,-5.0391,-5.0077,0,0,0,0,0,-5.0359,-5.0393,-5.0349,-5.043,-5.043,-5.0377,-5.0391,-5.0347,-5.0339,-5.0336,-5.0311,-5.0306,-5.0331,-5.0349,-5.0369,-5.0469,-5.0462,-5.0521,-5.0542,-5.056,-5.0572,-5.0625,-5.0651,-5.0376,-5.0376,-5.0376,0,0,-5.0442,-5.042,-5.0446,-5.0457,-5.0447,-5.0485,-5.0376,-5.0419,-5.0446,-5.0343,-5.0404,-5.0386,-5.0376,-5.046,-5.0496,-5.045,-5.0647,-5.0574,-5.0588,-5.0591,-5.064,-5.0666,-5.0689,-5.0384,-5.0382,-5.0381,0,0,-5.0612,-5.0599,-5.0665,-5.0658,-5.0646,-5.0611,-5.0627,-5.0598,-5.0582,-5.0643,-5.0566,-5.0598,-5.0642,-5.0638,-5.0642,-5.0814,-5.0754,-5.0822,-5.0933,-5.0986,-5.1008,-5.1026,-5.1089,-5.1112,-5.0835,-5.0835,-5.0836,0,-5.0717,-5.0769,-5.0706,-5.0755,-5.0763,-5.0671,-5.0738,-5.0735,-5.073,-5.0738,-5.0687,-5.0741,-5.0728,-5.0811,-5.0853,-5.0859,-5.0876,-5.0825,-5.101,-5.1028,-5.1045,-5.1103,-5.1126,-5.0844,-5.0843,-5.0842,-5.0841,0,-5.0899,-5.0937,-5.0992,-5.099,-5.1004,-5.1062,-5.1008,-5.103,-5.0986,-5.0957,-5.1021,-5.1001,-5.1017,-5.1033,-5.099,-5.1111,-5.1083,-5.1022,-5.0931,-5.108,-5.1134,-5.1156,-5.0856,-5.0853,-5.085,-5.0848,0,0,-5.1152,-5.1117,-5.1138,-5.1137,-5.1117,-5.1146,-5.12,-5.1216,-5.1236,-5.1237,-5.1281,-5.1322,-5.1266,-5.127,-5.1226,-5.1273,-5.1411,-5.1206,-5.1204,-5.1245,-5.1545,-5.1591,-5.1618,-5.1372,-5.1376,-5.1379,-5.1546,0,-5.1316,-5.1406,-5.1352,-5.1451,-5.1486,-5.1401,-5.1448,-5.1443,-5.1417,-5.1444,-5.1415,-5.1446,-5.1369,-5.1371,-5.1414,-5.1386,-5.1471,-5.1373,-5.1413,-5.1416,-5.1419,-5.1646,-5.1694,-5.1852,-5.1566,-5.157,-5.1572,0,-5.1518,-5.1528,-5.1631,-5.1607,-5.1619,-5.1663,-5.1674,-5.17,-5.1692,-5.167,-5.1677,-5.1622,-5.1675,-5.1586,-5.1658,-5.1593,-5.1606,-5.1595,-5.16,-5.1602,-5.1503,-5.1654,-5.1901,-5.1925,-5.1605,-5.1602,-5.16,0,-5.1694,-5.1733,-5.18,-5.1801,-5.1774,-5.1808,-5.1798,-5.1785,-5.1799,-5.1808,-5.1816,-5.1832,-5.1841,-5.1855,-5.1806,-5.1746,-5.1886,-5.1792,-5.187,-5.1872,-5.1903,-5.1902,-5.2157,-5.1912,-5.1912,-5.1911,-5.1911,0,-5.1882,-5.1948,-5.1879,-5.192,-5.1992,-5.193,-5.2004,-5.1985,-5.1975,-5.2012,-5.1939,-5.1975,-5.1908,-5.1938,-5.1901,-5.1967,-5.1971,-5.1956,-5.1945,-5.1963,-5.1965,-5.197,-5.1958,-5.1917,-5.1916,-5.1915,-5.1914,0,-5.209,-5.2046,-5.2113,-5.2083,-5.2077,-5.2132,-5.2106,-5.2144,-5.2114,-5.2162,-5.2169,-5.2123,-5.2155,-5.2107,-5.2133,-5.2108,-5.22,-5.2172,-5.2203,-5.2195,-5.2276,-5.2269,-5.2543,-5.2576,-5.2311,-5.2313,-5.2316,0,-5.2213,-5.2262,-5.2238,-5.2257,-5.2252,-5.2284,-5.2298,-5.2239,-5.2257,-5.2253,-5.2291,-5.2316,-5.2334,-5.2388,-5.2357,-5.2377,-5.235,-5.2445,-5.2352,-5.2369,-5.2352,-5.235,-5.2355,-5.2464,-5.2467,-5.2469,-5.2471,0,-5.2436,-5.2412,-5.2434,-5.245,-5.2469,-5.2478,-5.2482,-5.2503,-5.2441,-5.2465,-5.2496,-5.251,-5.2537,-5.2564,-5.2576,-5.2567,-5.251,-5.2501,-5.252,-5.2538,-5.2554,-5.2547,-5.2255,-5.2495,-5.2492,-5.2491,-5.2489,-5.2488,-5.2605,-5.2645,-5.2635,-5.2663,-5.266,-5.2667,-5.2701,-5.2676,-5.2701,-5.2719,-5.2683,-5.2724,-5.2717,-5.2728,-5.2725,-5.2757,-5.2715,-5.2743,-5.275,-5.2757,-5.277,-5.255,-5.2759,-5.2758,-5.2757,-5.2757,-5.2756,0,-5.2824,-5.2814,-5.2841,-5.2849,-5.2872,-5.2817,-5.2819,-5.2842,-5.2879,-5.2877,-5.2895,-5.2933,-5.2959,-5.2931,-5.2952,-5.2983,-5.2957,-5.299,-5.2987,-5.2986,-5.2806,-5.2787,-5.3011,-5.3011,-5.3011,-5.3011,-5.3011,-5.301,-5.2941,-5.3007,-5.2983,-5.3048,-5.3037,-5.3077,-5.3083,-5.3089,-5.3087,-5.3132,-5.3153,-5.3135,-5.3123,-5.3143,-5.3165,-5.3156,-5.3167,-5.321,-5.3192,-5.3024,-5.2999,-5.2975,-5.2957,-5.3213,-5.3213,-5.337,-5.3371,-5.3372]},{"header":{"parameterUnit":"m.s-1","parameterCategory":1,"la1":30.2991,"la2":30.254,"lo1":-89.0895,"lo2":-89.0444,"dy":0.0017,"dx":0.0017,"nx":28,"ny":28,"refTime":"2025-03-08T03:00:00:Z","depth":0,"parameterNumber":3,"parameterNumberName":"V-component_of_WINDS"},"data":[0,0,0,0,0,0,0,0,0,0,0,0,0,0,0,0,0,0,0,0,0,0,0,0,0,0,0,0,0,0,0,0,0,0,0,0,0,0,0,0,0,0,0,0,0,0,0,0,0,0,0,0,0,0,0,0,0,0,-0.0534,-0.0534,0,-0.0492,-0.0492,-0.0492,-0.0465,-0.0465,-0.0465,-0.0465,-0.0422,-0.0421,-0.042,0,0,0,0,0,0,0,0,0,0,0,0,0,-0.0589,-0.0589,-0.0534,-0.0534,-0.0533,-0.0493,-0.0492,-0.0491,-0.0465,-0.0465,-0.0465,-0.0465,-0.0423,-0.0421,-0.042,0,0,0,0,0,0,0,0,0,0,0,0,0,-0.0558,-0.0588,-0.0534,-0.0515,-0.0513,-0.0493,-0.0492,-0.0491,-0.0465,-0.0465,-0.0465,-0.0465,-0.0423,-0.0422,-0.042,-0.0416,0,0,-0.0416,-0.0415,0,0,0,0,0,0,0,0,-0.056,-0.0556,-0.0519,-0.0516,-0.0514,-0.0484,-0.0496,-0.0466,-0.0465,-0.0483,-0.0465,-0.0465,-0.0443,-0.044,-0.0433,-0.0414,-0.0412,-0.0415,-0.0415,-0.0414,-0.0414,0,0,0,0,0,0,0,-0.0562,-0.0558,-0.0518,-0.0518,-0.0515,-0.0508,-0.0503,-0.049,-0.0465,-0.0482,-0.048,-0.0475,-0.0442,-0.0434,-0.0431,-0.0411,-0.0416,-0.0414,-0.0413,-0.0413,-0.0383,-0.0384,0,0,0,0,0,0,-0.0568,-0.056,-0.0519,-0.0516,-0.0537,-0.0507,-0.0502,-0.0494,-0.0465,-0.046,-0.0475,-0.0474,-0.0437,-0.0433,-0.043,-0.0421,-0.0414,-0.0413,-0.0412,-0.0383,-0.0384,-0.0384,0,0,0,0,0,0,-0.0569,-0.0564,-0.0521,-0.0538,-0.0532,-0.0507,-0.0497,-0.0493,-0.0485,-0.046,-0.0456,-0.0472,-0.0436,-0.0432,-0.0419,-0.0419,-0.0412,-0.0411,-0.0383,-0.0383,-0.0384,-0.0404,0,0,0,0,0,0,-0.0571,-0.0565,-0.0564,-0.0538,-0.0531,-0.0511,-0.0497,-0.0492,-0.0483,-0.0481,-0.0456,-0.0452,-0.0436,-0.0421,-0.0417,-0.0417,-0.0409,-0.0383,-0.0383,-0.0384,-0.0403,-0.0405,-0.0407,0,0,0,0,0,-0.0573,-0.0572,-0.0564,-0.0559,-0.0528,-0.0511,-0.0507,-0.0489,-0.0483,-0.0481,-0.0464,-0.0453,-0.042,-0.042,-0.0415,-0.0415,-0.0383,-0.0383,-0.0384,-0.0403,-0.0405,-0.0406,0,0,0,0,0,0,-0.0599,-0.0568,-0.0559,-0.0549,-0.0533,-0.0507,-0.0504,-0.0492,-0.0477,-0.0475,-0.0453,-0.0448,-0.0436,-0.0424,-0.0425,-0.0407,-0.04,-0.0399,-0.0416,-0.0418,-0.0419,-0.0422,-0.0408,0,0,0,0,0,-0.0603,-0.0592,-0.0565,-0.056,-0.0552,-0.0529,-0.0521,-0.0508,-0.049,-0.0483,-0.0466,-0.0449,-0.0434,-0.0425,-0.0411,-0.0401,-0.0395,-0.0398,-0.04,-0.0401,-0.0401,-0.0393,-0.0394,-0.0384,-0.0384,-0.0384,0,0,-0.0613,-0.0594,-0.0589,-0.0564,-0.055,-0.0538,-0.0524,-0.0512,-0.0503,-0.0481,-0.0467,-0.0454,-0.0433,-0.0421,-0.0415,-0.0411,-0.0402,-0.0402,-0.0403,-0.0402,-0.0393,-0.0394,-0.0395,-0.0385,-0.0385,-0.0385,0,0,-0.0623,-0.0609,-0.0602,-0.0587,-0.0565,-0.055,-0.0548,-0.0523,-0.0513,-0.0499,-0.0482,-0.047,-0.0446,-0.0431,-0.0421,-0.0423,-0.0411,-0.0419,-0.0427,-0.042,-0.0421,-0.0421,-0.0421,-0.0421,-0.0419,-0.0419,-0.0419,0,-0.0638,-0.062,-0.0599,-0.0588,-0.0577,-0.0556,-0.0548,-0.0535,-0.051,-0.0502,-0.0497,-0.0465,-0.045,-0.0434,-0.0434,-0.0427,-0.0423,-0.0422,-0.0422,-0.0422,-0.0423,-0.0422,-0.0422,-0.042,-0.042,-0.042,-0.042,0,-0.0638,-0.0625,-0.0622,-0.0597,-0.0585,-0.0576,-0.0553,-0.0544,-0.0531,-0.0516,-0.05,-0.0481,-0.0461,-0.0456,-0.0444,-0.0437,-0.0435,-0.0426,-0.0418,-0.0425,-0.0424,-0.0424,-0.0421,-0.0421,-0.0421,-0.042,0,0,-0.0665,-0.0628,-0.0627,-0.0614,-0.0588,-0.0577,-0.0566,-0.0546,-0.0538,-0.052,-0.0509,-0.0488,-0.0479,-0.0467,-0.0453,-0.0447,-0.0448,-0.0439,-0.0438,-0.044,-0.0437,-0.0443,-0.0444,-0.044,-0.044,-0.044,-0.0438,0,-0.0672,-0.065,-0.0631,-0.0616,-0.0603,-0.0582,-0.0571,-0.0554,-0.0538,-0.0524,-0.0508,-0.0492,-0.0483,-0.0475,-0.0468,-0.045,-0.0447,-0.0449,-0.0428,-0.0428,-0.0434,-0.0443,-0.045,-0.045,-0.0438,-0.0438,-0.0438,0,-0.0677,-0.0659,-0.0643,-0.0616,-0.0609,-0.0601,-0.058,-0.0567,-0.0545,-0.0535,-0.052,-0.0505,-0.049,-0.0483,-0.0462,-0.0464,-0.0454,-0.0444,-0.0443,-0.044,-0.0433,-0.044,-0.045,-0.045,-0.0437,-0.0437,-0.0437,0,-0.0697,-0.0669,-0.0656,-0.0646,-0.0614,-0.0608,-0.0594,-0.0572,-0.0561,-0.0542,-0.0534,-0.0514,-0.0503,-0.0488,-0.0467,-0.0464,-0.0448,-0.0439,-0.0437,-0.0438,-0.0435,-0.0436,-0.0443,-0.043,-0.043,-0.043,-0.043,0,-0.0706,-0.0697,-0.0664,-0.0656,-0.0644,-0.0621,-0.061,-0.0594,-0.0574,-0.0562,-0.0542,-0.0531,-0.0504,-0.0489,-0.0472,-0.0456,-0.0452,-0.0442,-0.0438,-0.0444,-0.0445,-0.0437,-0.0436,-0.043,-0.043,-0.043,-0.043,0,-0.0727,-0.0705,-0.0688,-0.0659,-0.0651,-0.0644,-0.0618,-0.0608,-0.0591,-0.0575,-0.057,-0.0543,-0.0524,-0.0501,-0.0475,-0.0464,-0.0449,-0.0443,-0.0456,-0.0454,-0.0453,-0.0453,-0.0455,-0.0454,-0.0442,-0.0442,-0.0442,0,-0.0734,-0.0726,-0.0695,-0.0685,-0.0672,-0.0656,-0.0644,-0.062,-0.0608,-0.0581,-0.0574,-0.0554,-0.0536,-0.0506,-0.0484,-0.0463,-0.0456,-0.0458,-0.0453,-0.0458,-0.0455,-0.0455,-0.0453,-0.046,-0.046,-0.046,-0.046,0,-0.0748,-0.0737,-0.0721,-0.0699,-0.0685,-0.0667,-0.0649,-0.0641,-0.0613,-0.06,-0.058,-0.0566,-0.0539,-0.0518,-0.0494,-0.0479,-0.0464,-0.0462,-0.046,-0.0466,-0.0473,-0.0468,-0.046,-0.0462,-0.0462,-0.0462,-0.0462,-0.0462,-0.0762,-0.0753,-0.0729,-0.0711,-0.0694,-0.0676,-0.0665,-0.0646,-0.0629,-0.0604,-0.0591,-0.0571,-0.0547,-0.0513,-0.0498,-0.0481,-0.0477,-0.0475,-0.0474,-0.0474,-0.0475,-0.0476,-0.0477,-0.0477,-0.0477,-0.0477,-0.0477,0,-0.0774,-0.0758,-0.0741,-0.0714,-0.0699,-0.0687,-0.0664,-0.0652,-0.0635,-0.0614,-0.0596,-0.0572,-0.0551,-0.0526,-0.0503,-0.0495,-0.0487,-0.0489,-0.049,-0.0486,-0.0481,-0.0484,-0.0495,-0.0495,-0.0495,-0.0495,-0.0495,-0.0495,-0.0779,-0.0763,-0.0749,-0.0724,-0.0707,-0.0687,-0.0675,-0.0658,-0.0641,-0.0615,-0.0597,-0.0581,-0.0558,-0.0532,-0.0512,-0.0505,-0.0497,-0.0501,-0.0492,-0.0488,-0.0487,-0.0485,-0.0488,-0.05,-0.05,-0.0499,-0.0499,-0.0499]}]]